Погода в Птичьем

Россия / Курганская область     55°07′13″N   63°24′19″E
темп.,
°C
ветер,
м/с
пор.,
м/с
влажн.,
%
обл.,
%
осадки,
мм/ч
давл.,
гПа
погр.,
м
18 января, вт
вт1823:00−15юз614905 0.0 1012241
02:00−14юз6149055 0.0 1013260
05:00−13юз61290100 0.0 1015249
08:00−12юз61290100 0.0 1015245
11:00−11ююз613905 0.0 1017273
14:00−10ююз613885 0.0 1018367
17:00−11ююз614895 0.0 1019298
20:00−11юз614915 0.0 1019267
19 января, ср
ср1923:00−12ююз5129335 0.0 1019207
02:00−13ююз5119391 0.0 1020189
05:00−12ююз51293100 0.0 1020194
08:00−10юз5109391 0.0 1020188
11:00−10юз4992100 0.0 1021164
14:00−7ююз4991100 0.0 1021200
17:00−9ююз4892100 0.0 1022117
20:00−9ююз4991100 0.0 1022148
20 января, чт
чт2023:00−9юз4991100 0.0 1022143
02:00
05:00−12юз489265 0.0 102397
08:00−12зюз369264 0.0 102467
11:00
14:00−7юз249197 0.0 1025112
17:00−12юз22957 0.0 102616
20:00−15юз22976 0.0 102716
21 января, пт
пт2123:00−17юз229850 0.0 102815
02:00−18зюз229952 0.0 10289
05:00−18зюз229950 0.0 10299
08:00−19з1110059 0.0 10299
11:00−13з22965 0.0 103037
14:00−9з22925 0.0 103076
17:00−15юз229821 0.0 10319
20:00−18зюз229953 0.0 103212
22 января, сб
сб2223:00−19зюз229960 0.0 103216
02:00−20зюз2210066 0.0 10339
05:00−20зюз2210065 0.0 10349
08:00−21юз2210077 0.0 103410
11:00−14юз239736 0.0 103560
14:00−10юз2393100 0.0 103595
17:00−13ююз2296100 0.0 103610
20:00−15юз1197100 0.0 10379